STARLINK-35186, 65611

Orbit data source: Space-Track

STARLINK-35186, 65611 is a payload satellite owned by SpaceX/Seattle (US) in SSO that was launched on Sat, 13 Sep 2025 UTC via an FALCON 9 launch vehicle from the Air Force Eastern Test Range (AFETR). Payload-class satellites include a variety of spacecraft equipped with specific instruments for various scientific and technological missions. These include communications satellites like Starlink; space stations such as the ISS; scientific satellites like the Hubble; Earth observation satellites from companies like Planet Labs, Umbra, and HawkEye 360; GPS; miniature CubeSats for education and research; and military/defense satellites.

Loading next visibility...
Identifier
65611, 2025-207V
Orbit
SSO
Country
Flag of USUS
Related business
Manufacturer
SpaceX/Seattle
Mission
Operational Commercial Communications
Bus & Motor
STARLINK V2MO, Unknown motor
Mass
575 kg wet, ~530 kg dry
Launch date (UTC)
2025-09-13 (9 months ago)
Launch vehicle
FALCON 9
Launch site
Air Force Eastern Test Range (AFETR)
Object type
Payload
Rocket body
Debris
Shape & HBR
Box + 2 Pan, 17.7 m
Radar Cross Section
36.964 m², Large (>1 m²)

Expand to show TLE details & history
Last TLE update: 17 hours ago

TLE from 17 hours ago
0 STARLINK-35186
1 65611U 25207V   26166.42753652  .00001206  00000-0  87534-4 0  9990
2 65611  97.3563 234.0118 0001137  79.8803 280.2552 15.05654584 42968
Epoch: 2026-06-15T10:15Z
TLE epoch observation values (Epoch: 2026-06-15T10:15:39.155Z)
Latitude
-0.00009°
Longitude
176.38459°
Altitude
552.429 km
Speed
7.586 km/s
True Right ascension
15h 36m 02s
True Declination
0° 00' 00"
Sunlit
Object was in full shadow at epoch
Visualization orbit readout
Latitude
Unknown
Longitude
Unknown
Altitude
Unknown
Speed
Unknown
Apparent Right ascension
Unknown
Apparent Declination
Unknown
Sunlit
N/A
Visualization observer readout
Local Sidereal Time
13:36:14
Azimuth
Unknown
Elevation
Unknown
Doppler factor
Unknown
Orbital elements
Apogee altitude
547.267 km
Perigee altitude
545.693 km
Semi-major axis
6,924.617 km
Eccentricity
0.00011
Inclination
97.3563°
RAAN
234.0118°
Arg. of periapsis
79.8803°
True anomaly
280.24238°
Mean anomaly
280.2552°
Eccentric anomaly
280.24879°
Mean motion
3.7666 °/min
Orbital period
95.58 mins
BSTAR
0.000087534
Loading maneuver chart data...
Computing Atmospheric mass density...
Loading historical data...
Loading historical data...
Loading historical data...
Loading historical data...
Loading historical data...
Loading historical data...
Loading historical data...

Documentation

Showing up to 5 results
|